Weather History for KCIN - March, 2013

Change the Weather History Date:

Monday, March 11, 2013

  Actual Average Record
Temperature  
Mean Temperature 22 °F -  
Max Temperature 26 °F 45 °F 68 °F (1957)
Min Temperature 17 °F 24 °F -7 °F (1998)
Degree Days  
Heating Degree Days 44    
Moisture  
Dew Point 21 °F    
Average Humidity 86    
Maximum Humidity 100    
Minimum Humidity 74    
Precipitation  
Precipitation 0.00 in - - ()
Sea Level Pressure  
Sea Level Pressure 29.84 in    
Wind  
Wind Speed 20 mph (NW)    
Max Wind Speed 26 mph    
Max Gust Speed 32 mph    
Visibility 8 miles    
Events Rain , Snow    
Averages and records for this station are not official NWS values.
T = Trace of Precipitation, MM = Missing Value Source: NWS Daily Summary

Daily Weather History Graph

Daily Weather History Graph

Search for Another Location

Airport or City:

Trip Planner

Search our weather history database for the weather conditions in past years. The results will help you decide how hot, cold, wet, or windy it might be!

Date:

Astronomy

Mar. 11, 2013 Rise Set
Actual Time 7:37 AM CDT 7:21 PM CDT
Civil Twilight 7:09 AM CDT 7:49 PM CDT
Nautical Twilight 6:37 AM CDT 8:21 PM CDT
Astronomical Twilight 6:04 AM CDT 8:54 PM CDT
Moon 7:11 AM CDT (3/11) 7:35 PM CDT (3/11)
Length of Visible Light 12h 39m
Length of Day
11h 44m
Waning Crescent, 0% of the Moon is Illuminated
Mar 11
Waning Crescent
Mar 11
New
Mar 19
First Quarter
Mar 27
Full
Apr 2
Last Quarter

Hourly Weather History & Observations

Time (CDT) Temp. Windchill Dew Point Humidity Pressure Visibility Wind Dir Wind Speed Gust Speed Precip Events Conditions
12:35 AM 24.8 °F 8.7 °F 24.8 °F 100% 29.82 in 2.0 mi NNW 26.5 mph 32.2 mph N/A Rain Light Freezing Rain
12:55 AM 24.8 °F 9.3 °F 24.8 °F 100% 29.82 in 1.2 mi NNW 24.2 mph 29.9 mph N/A Snow Light Snow
1:15 AM 24.8 °F 9.3 °F 24.8 °F 100% 29.81 in 1.8 mi NNW 24.2 mph 29.9 mph N/A Snow Light Snow
1:35 AM 24.8 °F 9.6 °F 24.8 °F 100% 29.82 in 1.8 mi NNW 23.0 mph 32.2 mph N/A   Overcast
1:55 AM 24.8 °F 9.3 °F 23.0 °F 93% 29.81 in 1.5 mi NNW 24.2 mph 29.9 mph N/A   Overcast
2:15 AM 24.8 °F 9.6 °F 23.0 °F 93% 29.82 in 1.8 mi NNW 23.0 mph - N/A   Overcast
2:35 AM 24.8 °F 9.3 °F 23.0 °F 93% 29.82 in 1.5 mi NNW 24.2 mph - N/A Rain Light Freezing Rain
2:55 AM 24.8 °F 9.3 °F 23.0 °F 93% 29.81 in 1.2 mi NNW 24.2 mph 32.2 mph N/A   Overcast
3:15 AM 24.8 °F 9.6 °F 23.0 °F 93% 29.80 in 1.8 mi NNW 23.0 mph - N/A   Overcast
3:35 AM 24.8 °F 10.0 °F 23.0 °F 93% 29.79 in 2.5 mi NNW 21.9 mph 27.6 mph N/A   Overcast
3:55 AM 24.8 °F 10.0 °F 23.0 °F 93% 29.79 in 3.0 mi NNW 21.9 mph - N/A   Overcast
4:15 AM 24.8 °F 9.6 °F 23.0 °F 93% 29.79 in 5.0 mi NNW 23.0 mph 28.8 mph N/A   Overcast
4:35 AM 24.8 °F 10.0 °F 23.0 °F 93% 29.79 in 4.0 mi NW 21.9 mph 28.8 mph N/A Rain Light Freezing Rain
4:55 AM 24.8 °F 9.6 °F 23.0 °F 93% 29.79 in 4.0 mi NW 23.0 mph - N/A Rain Light Freezing Rain
5:15 AM 23.0 °F 7.6 °F 23.0 °F 100% 29.79 in 3.0 mi NNW 21.9 mph - N/A Snow Light Snow
5:35 AM 24.8 °F 10.0 °F 23.0 °F 93% 29.79 in 5.0 mi NW 21.9 mph - N/A Rain Light Freezing Rain
5:55 AM 24.8 °F 9.6 °F 23.0 °F 93% 29.80 in 5.0 mi NW 23.0 mph 29.9 mph N/A Rain Light Freezing Rain
6:15 AM 24.8 °F 9.6 °F 23.0 °F 93% 29.80 in 6.0 mi NW 23.0 mph - N/A   Light Freezing Rain
6:35 AM 24.8 °F 10.3 °F 23.0 °F 93% 29.80 in 9.0 mi NNW 20.7 mph - N/A   Light Freezing Rain
6:55 AM 24.8 °F 10.7 °F 23.0 °F 93% 29.81 in 10.0 mi NNW 19.6 mph 26.5 mph N/A   Light Freezing Rain
7:15 AM 24.8 °F 10.3 °F 23.0 °F 93% 29.81 in 9.0 mi NNW 20.7 mph - N/A   Light Freezing Rain
7:35 AM 24.8 °F 11.5 °F 23.0 °F 93% 29.81 in 9.0 mi NNW 17.3 mph 25.3 mph N/A   Light Freezing Rain
7:55 AM 24.8 °F 10.3 °F 21.2 °F 86% 29.81 in 9.0 mi NNW 20.7 mph - N/A   Light Freezing Rain
8:15 AM 24.8 °F 10.3 °F 21.2 °F 86% 29.82 in 8.0 mi NW 20.7 mph - N/A   Light Freezing Rain
8:35 AM 24.8 °F 10.7 °F 21.2 °F 86% 29.82 in 7.0 mi NW 19.6 mph 25.3 mph N/A   Light Freezing Rain
8:55 AM 23.0 °F 8.3 °F 21.2 °F 93% 29.83 in 7.0 mi NW 19.6 mph 25.3 mph N/A   Light Freezing Rain
9:15 AM 23.0 °F 8.0 °F 21.2 °F 93% 29.83 in 7.0 mi NW 20.7 mph - N/A   Light Freezing Rain
9:35 AM 24.8 °F 11.1 °F 21.2 °F 86% 29.84 in 9.0 mi NNW 18.4 mph - N/A   Light Freezing Rain
9:55 AM 24.8 °F 11.1 °F 21.2 °F 86% 29.84 in 8.0 mi NW 18.4 mph - N/A   Light Freezing Rain
10:15 AM 24.8 °F 11.5 °F 21.2 °F 86% 29.84 in 8.0 mi NW 17.3 mph 24.2 mph N/A   Light Freezing Rain
10:35 AM 24.8 °F 11.5 °F 21.2 °F 86% 29.84 in 8.0 mi NW 17.3 mph 23.0 mph N/A   Light Freezing Rain
10:55 AM 24.8 °F 11.5 °F 21.2 °F 86% 29.84 in 10.0 mi NW 17.3 mph - N/A   Light Freezing Rain
11:15 AM 24.8 °F 11.1 °F 19.4 °F 80% 29.84 in 10.0 mi NW 18.4 mph - N/A   Light Freezing Rain
11:35 AM 24.8 °F 11.1 °F 19.4 °F 80% 29.84 in 10.0 mi NW 18.4 mph - N/A   Light Freezing Rain
11:55 AM 24.8 °F 10.3 °F 21.2 °F 86% 29.84 in 10.0 mi WNW 20.7 mph - N/A   Light Freezing Rain
12:15 PM 24.8 °F 11.1 °F 19.4 °F 80% 29.84 in 9.0 mi NW 18.4 mph - N/A   Light Freezing Rain
12:35 PM 24.8 °F 10.7 °F 19.4 °F 80% 29.84 in 10.0 mi NW 19.6 mph - N/A   Light Freezing Rain
12:55 PM 24.8 °F 10.7 °F 19.4 °F 80% 29.84 in 10.0 mi WNW 19.6 mph - N/A   Light Freezing Rain
1:15 PM 24.8 °F 11.5 °F 19.4 °F 80% 29.84 in 10.0 mi NW 17.3 mph - N/A   Light Freezing Rain
1:35 PM 24.8 °F 11.1 °F 19.4 °F 80% 29.84 in 10.0 mi NW 18.4 mph - N/A   Light Freezing Rain
1:55 PM 24.8 °F 11.9 °F 19.4 °F 80% 29.84 in 10.0 mi NW 16.1 mph 23.0 mph N/A   Light Freezing Rain
2:15 PM 24.8 °F 11.1 °F 19.4 °F 80% 29.83 in 10.0 mi NW 18.4 mph 24.2 mph N/A   Light Freezing Rain
2:35 PM 24.8 °F 11.1 °F 19.4 °F 80% 29.83 in 10.0 mi NW 18.4 mph - N/A   Light Freezing Rain
2:55 PM 24.8 °F 11.9 °F 19.4 °F 80% 29.82 in 10.0 mi NW 16.1 mph - N/A   Light Freezing Rain
3:15 PM 24.8 °F 11.9 °F 17.6 °F 74% 29.82 in 10.0 mi NW 16.1 mph - N/A   Light Freezing Rain
3:35 PM 24.8 °F 11.5 °F 19.4 °F 80% 29.83 in 10.0 mi NW 17.3 mph - N/A   Light Freezing Rain
3:55 PM 24.8 °F 10.7 °F 17.6 °F 74% 29.85 in 10.0 mi WNW 19.6 mph - N/A   Light Freezing Rain
4:15 PM 24.8 °F 11.9 °F 19.4 °F 80% 29.86 in 10.0 mi WNW 16.1 mph - N/A   Light Freezing Rain
4:35 PM 24.8 °F 12.4 °F 19.4 °F 80% 29.85 in 10.0 mi NW 15.0 mph 23.0 mph N/A   Light Freezing Rain
4:55 PM 26.6 °F 15.2 °F 19.4 °F 74% 29.85 in 10.0 mi NW 13.8 mph 20.7 mph N/A   Light Freezing Rain
5:15 PM 26.6 °F 15.2 °F 19.4 °F 74% 29.86 in 10.0 mi NW 13.8 mph - N/A   Light Freezing Rain
5:35 PM 26.6 °F 16.2 °F 19.4 °F 74% 29.85 in 10.0 mi NW 11.5 mph 17.3 mph N/A   Mostly Cloudy
6:15 PM 24.8 °F 14.6 °F 19.4 °F 80% 29.84 in 10.0 mi WNW 10.4 mph - N/A   Mostly Cloudy
6:35 PM 24.8 °F 14.6 °F 19.4 °F 80% 29.86 in 10.0 mi West 10.4 mph - N/A   Mostly Cloudy
6:55 PM 24.8 °F 12.9 °F 21.2 °F 86% 29.88 in 10.0 mi West 13.8 mph - N/A   Overcast
7:15 PM 24.8 °F 12.9 °F 21.2 °F 86% 29.89 in 10.0 mi West 13.8 mph - N/A   Overcast
7:35 PM 24.8 °F 14.0 °F 21.2 °F 86% 29.89 in 10.0 mi West 11.5 mph - N/A   Overcast
7:55 PM 24.8 °F 15.3 °F 21.2 °F 86% 29.88 in 10.0 mi West 9.2 mph - N/A   Overcast
8:15 PM 26.6 °F 16.8 °F 21.2 °F 80% 29.89 in 10.0 mi West 10.4 mph - N/A   Overcast
8:35 PM 24.8 °F 13.4 °F 21.2 °F 86% 29.91 in 10.0 mi West 12.7 mph - N/A   Overcast
8:55 PM 24.8 °F 13.4 °F 19.4 °F 80% 29.91 in 10.0 mi West 12.7 mph - N/A   Overcast
9:15 PM 23.0 °F 11.7 °F 17.6 °F 80% 29.92 in 10.0 mi West 11.5 mph - N/A   Mostly Cloudy
9:35 PM 21.2 °F 9.5 °F 17.6 °F 86% 29.92 in 10.0 mi West 11.5 mph - N/A   Overcast
9:55 PM 21.2 °F 9.5 °F 17.6 °F 86% 29.92 in 10.0 mi West 11.5 mph - N/A   Overcast
10:15 PM 19.4 °F 7.9 °F 15.8 °F 86% 29.93 in 10.0 mi West 10.4 mph - N/A   Mostly Cloudy
10:35 PM 17.6 °F 5.0 °F 14.0 °F 86% 29.93 in 10.0 mi West 11.5 mph - N/A   Partly Cloudy
10:55 PM 23.0 °F 10.6 °F 17.6 °F 80% 29.93 in 10.0 mi West 13.8 mph - N/A   Scattered Clouds
11:15 PM 23.0 °F 10.6 °F 17.6 °F 80% 29.93 in 10.0 mi West 13.8 mph - N/A   Partly Cloudy
11:35 PM 19.4 °F 7.2 °F 15.8 °F 86% 29.93 in 10.0 mi West 11.5 mph - N/A   Partly Cloudy
11:55 PM 19.4 °F 6.6 °F 15.8 °F 86% 29.93 in 10.0 mi West 12.7 mph - N/A   Partly Cloudy